TimeEST,TemperatureF,Dew PointF,Humidity,Sea Level PressureIn,VisibilityMPH,Wind Direction,Wind SpeedMPH,Gust SpeedMPH,PrecipitationIn,Events,Conditions,WindDirDegrees,DateUTC
12:02 AM,33.8,30.2,87,29.94,2.5,SSW,16.1,23.0,0.00,Snow,Light Snow,200,2013-01-06 05:02:00
12:25 AM,33.8,30.2,87,29.92,3.0,SW,15.0,21.9,0.00,Snow,Light Snow,220,2013-01-06 05:25:00
12:53 AM,34.0,30.0,85,29.94,5.0,SW,17.3,21.9,0.00,Snow,Light Snow,220,2013-01-06 05:53:00
1:53 AM,34.0,30.0,85,29.92,9.0,SW,15.0,24.2,0.00,,Overcast,220,2013-01-06 06:53:00
2:53 AM,34.0,30.0,85,29.91,8.0,SW,15.0,24.2,N/A,,Overcast,220,2013-01-06 07:53:00
3:53 AM,35.1,30.9,85,29.89,7.0,SSW,15.0,-,N/A,,Overcast,210,2013-01-06 08:53:00
4:53 AM,34.0,30.9,89,29.88,5.0,SSW,12.7,-,0.00,,Overcast,210,2013-01-06 09:53:00
5:06 AM,33.8,30.2,87,29.85,2.0,SSW,11.5,-,0.00,Snow,Light Snow,210,2013-01-06 10:06:00
5:10 AM,33.8,30.2,87,29.85,1.8,SSW,12.7,-,0.00,Snow,Light Snow,210,2013-01-06 10:10:00
5:21 AM,33.8,30.2,87,29.85,1.5,SSW,11.5,-,N/A,Snow,Light Snow,210,2013-01-06 10:21:00
5:53 AM,34.0,30.9,89,29.87,1.5,SSW,9.2,-,0.02,Snow,Light Snow,210,2013-01-06 10:53:00
6:04 AM,33.8,30.2,87,29.84,3.0,SSW,9.2,-,0.00,Snow,Light Snow,210,2013-01-06 11:04:00
6:53 AM,34.0,30.9,89,29.87,6.0,SW,9.2,-,0.00,,Overcast,220,2013-01-06 11:53:00
7:35 AM,35.6,30.2,81,29.85,6.0,SSW,9.2,-,N/A,,Overcast,210,2013-01-06 12:35:00
7:53 AM,35.1,30.9,85,29.87,6.0,SW,9.2,-,0.00,,Overcast,220,2013-01-06 12:53:00
8:11 AM,33.8,30.2,87,29.85,5.0,SW,8.1,-,N/A,,Overcast,220,2013-01-06 13:11:00
8:37 AM,35.6,30.2,81,29.85,5.0,SSW,8.1,-,N/A,,Overcast,210,2013-01-06 13:37:00
8:53 AM,35.1,30.9,85,29.87,5.0,SSW,9.2,-,N/A,,Overcast,210,2013-01-06 13:53:00
9:53 AM,35.1,30.9,85,29.89,5.0,SW,12.7,-,N/A,,Overcast,220,2013-01-06 14:53:00
10:29 AM,35.6,30.2,81,29.88,2.5,SW,11.5,-,0.00,Snow,Light Snow,220,2013-01-06 15:29:00
10:53 AM,35.1,32.0,89,29.91,3.0,SW,10.4,-,0.00,,Overcast,220,2013-01-06 15:53:00
11:06 AM,35.6,30.2,81,29.89,1.5,SW,9.2,-,0.00,Snow,Light Snow,230,2013-01-06 16:06:00
11:20 AM,33.8,32.0,93,29.89,1.5,SW,8.1,-,0.01,Snow,Light Snow,230,2013-01-06 16:20:00
11:31 AM,33.8,32.0,93,29.89,1.5,WSW,8.1,-,0.01,Snow,Light Snow,250,2013-01-06 16:31:00
11:53 AM,35.1,32.0,89,29.91,1.5,West,8.1,-,0.01,Snow,Light Snow,280,2013-01-06 16:53:00
12:06 PM,35.6,30.2,81,29.89,1.5,WNW,12.7,20.7,0.00,Snow,Light Snow,290,2013-01-06 17:06:00
12:12 PM,35.6,30.2,81,29.89,3.0,WNW,11.5,20.7,0.00,Snow,Light Snow,290,2013-01-06 17:12:00
12:20 PM,33.8,30.2,87,29.89,4.0,WNW,11.5,-,0.00,,Overcast,290,2013-01-06 17:20:00
12:53 PM,34.0,28.9,82,29.91,3.0,WNW,10.4,-,0.00,Snow,Light Snow,300,2013-01-06 17:53:00
1:00 PM,33.8,28.4,81,29.89,2.5,WNW,11.5,-,0.00,Snow,Light Snow,290,2013-01-06 18:00:00
1:17 PM,33.8,30.2,87,29.90,3.0,West,9.2,-,0.00,Snow,Light Snow,270,2013-01-06 18:17:00
1:42 PM,33.8,28.4,81,29.90,6.0,WNW,12.7,-,0.00,,Haze,290,2013-01-06 18:42:00
1:53 PM,34.0,28.0,79,29.93,7.0,WNW,9.2,-,0.00,,Overcast,290,2013-01-06 18:53:00
2:07 PM,33.8,26.6,75,29.91,7.0,WNW,10.4,-,N/A,,Overcast,300,2013-01-06 19:07:00
2:53 PM,34.0,27.0,75,29.96,9.0,NW,8.1,-,N/A,,Overcast,310,2013-01-06 19:53:00
3:28 PM,33.8,26.6,75,29.96,10.0,WNW,10.4,-,N/A,,Overcast,300,2013-01-06 20:28:00
3:42 PM,33.8,24.8,70,29.97,10.0,NW,10.4,-,N/A,,Overcast,310,2013-01-06 20:42:00
3:53 PM,34.0,26.1,73,30.01,10.0,WNW,10.4,-,N/A,,Overcast,300,2013-01-06 20:53:00
4:07 PM,33.8,26.6,75,29.99,10.0,NW,10.4,-,N/A,,Overcast,310,2013-01-06 21:07:00
4:53 PM,33.1,26.1,75,30.05,10.0,NW,11.5,-,N/A,,Overcast,310,2013-01-06 21:53:00
5:53 PM,34.0,26.1,73,30.09,10.0,NW,10.4,-,N/A,,Overcast,310,2013-01-06 22:53:00
6:53 PM,33.1,27.0,78,30.15,10.0,NW,9.2,-,N/A,,Overcast,320,2013-01-06 23:53:00
7:53 PM,33.1,26.1,75,30.18,9.0,NW,6.9,-,N/A,,Overcast,320,2013-01-07 00:53:00
8:53 PM,32.0,25.0,75,30.22,10.0,North,10.4,-,N/A,,Overcast,350,2013-01-07 01:53:00
9:53 PM,32.0,24.1,73,30.23,10.0,North,8.1,-,N/A,,Overcast,350,2013-01-07 02:53:00
10:34 PM,30.2,23.0,75,30.23,10.0,North,5.8,-,N/A,,Overcast,350,2013-01-07 03:34:00
10:53 PM,30.9,23.0,72,30.27,10.0,NNW,8.1,-,N/A,,Overcast,330,2013-01-07 03:53:00
11:24 PM,30.2,21.2,69,30.24,10.0,Calm,Calm,-,N/A,,Overcast,0,2013-01-07 04:24:00
11:53 PM,30.0,21.9,72,30.27,10.0,Calm,Calm,-,N/A,,Overcast,0,2013-01-07 04:53:00